sat.trackr.live / text

‹ back to catalog

KUIPER-00187

NORAD 67141 · 2025-301J

PAYLOAD ACTIVE UNKNOWN

§ Identity

Operator
Country
US
Launch date
2025-12-16
Launch site
AFETR
Launch vehicle
Mass (kg)
RCS (m²)

External: N2YO · Heavens-Above · Gunter

§ Orbital elements

Epoch: 2026-05-25T03:41:58.261920Z

Period
97.30 min
Inclination
51.9023°
Eccentricity
0.0000734
Mean motion
14.79930158 rev/d
Perigee alt
629.0 km
Apogee alt
630.1 km
Semi-major
7,007.7 km
B*
1.2497e-4
RAAN
102.5199°
Arg perigee
88.2574°
Mean anomaly
271.8472°
Rev number
2,484

§ Raw data

KUIPER-001871 67141U 25301J   26145.15414655  .00000732  00000+0  12497-3 0  99962 67141  51.9023 102.5199 0000734  88.2574 271.8472 14.79930158 24842

JSON: /api/v1/satellites/67141 · /tle

For live sub-satellite position, see the globe view (requires WebGL).

§ Visibility from observer

Set your observer location to see the next 7 days of passes ≥ 10°. The values pass through the URL so the page stays shareable.

No JS? Fill the form by hand. The geolocation button needs JavaScript.